Weather History for Chitose AB, Japan

Change the Weather History Date:

Tuesday, January 29, 2013

  Actual Average Record
Temperature  
Mean Temperature 16 °F -  
Max Temperature 28 °F 29 °F 41 °F (1998)
Min Temperature 5 °F 8 °F -9 °F (1999)
Degree Days  
Heating Degree Days 48    
Moisture  
Dew Point 17 °F    
Average Humidity 87    
Maximum Humidity 100    
Minimum Humidity 59    
Precipitation  
Precipitation 0.00 in - - ()
Sea Level Pressure  
Sea Level Pressure 30.04 in    
Wind  
Wind Speed 8 mph ()    
Max Wind Speed 13 mph    
Max Gust Speed -    
Visibility 4.3 miles    
Events Snow    
Averages and records for this station are not official NWS values.
T = Trace of Precipitation, MM = Missing Value Source: Averaged Metar Reports

Daily Weather History Graph

Daily Weather History Graph

Search for Another Location

Airport:

Trip Planner

Search our weather history database for the weather conditions in past years. The results will help you decide how hot, cold, wet, or windy it might be!

Date:

Astronomy

Jan. 29, 2013 Rise Set
Actual Time 6:51 AM JST 4:42 PM JST
Civil Twilight 6:20 AM JST 5:12 PM JST
Nautical Twilight 5:46 AM JST 5:46 PM JST
Astronomical Twilight 5:13 AM JST 6:19 PM JST
Moon 7:03 PM JST (1/29) 7:24 AM JST (1/29)
Length of Visible Light 10h 51m
Length of Day
9h 50m
Waning Gibbous, 96% of the Moon is Illuminated
Jan 29
Waning Gibbous
Feb 3
Last Quarter
Feb 10
New
Feb 18
First Quarter
Feb 26
Full

Hourly Weather History & Observations

Time (JST) Temp. Windchill Dew Point Humidity Pressure Visibility Wind Dir Wind Speed Gust Speed Precip Events Conditions
12:00 AM 12.2 °F -1.0 °F 8.6 °F 85% 29.95 in 6.2 mi NNW 10.4 mph - N/A   Partly Cloudy
12:30 AM 14.0 °F 2.9 °F 10.4 °F 86% 29.98 in 6.2 mi NNW 8.1 mph - N/A   Partly Cloudy
1:00 AM 10.4 °F -1.5 °F 6.8 °F 85% 29.98 in 6.2 mi NNW 8.1 mph - N/A   Partly Cloudy
1:30 AM 10.4 °F 0.8 °F 8.6 °F 92% 29.98 in 6.2 mi North 5.8 mph - N/A   Partly Cloudy
2:00 AM 10.4 °F -0.4 °F 8.6 °F 92% 29.98 in 6.2 mi North 6.9 mph - N/A   Partly Cloudy
2:30 AM 6.8 °F -4.8 °F 5.0 °F 92% 29.98 in 6.2 mi North 6.9 mph - N/A   Partly Cloudy
3:00 AM 8.6 °F -3.7 °F 6.8 °F 92% 29.98 in 6.2 mi North 8.1 mph - N/A   Partly Cloudy
3:30 AM 8.6 °F -2.6 °F 6.8 °F 92% 29.98 in 6.2 mi North 6.9 mph - N/A   Partly Cloudy
4:00 AM 6.8 °F -3.5 °F 3.2 °F 85% 29.98 in 6.2 mi North 5.8 mph - N/A   Partly Cloudy
4:30 AM 6.8 °F -2.0 °F 5.0 °F 92% 29.98 in 6.2 mi North 4.6 mph - N/A   Partly Cloudy
5:00 AM 6.8 °F -6.9 °F 5.0 °F 92% 29.98 in 6.2 mi North 9.2 mph - N/A   Partly Cloudy
5:30 AM 5.0 °F -6.9 °F 3.2 °F 92% 30.01 in 6.2 mi North 6.9 mph - N/A   Partly Cloudy
6:00 AM 6.8 °F -4.8 °F 3.2 °F 85% 30.01 in 6.2 mi North 6.9 mph - N/A   Scattered Clouds
6:30 AM 5.0 °F -6.9 °F 3.2 °F 92% 30.01 in 6.2 mi North 6.9 mph - N/A   Partly Cloudy
7:00 AM 5.0 °F -10.8 °F 3.2 °F 92% 30.04 in 6.2 mi North 11.5 mph - N/A   Partly Cloudy
7:30 AM 5.0 °F -5.6 °F 3.2 °F 92% 30.04 in 6.2 mi North 5.8 mph - N/A   Partly Cloudy
8:00 AM 6.8 °F -6.9 °F 5.0 °F 92% 30.04 in 6.2 mi NNW 9.2 mph - N/A   Partly Cloudy
8:30 AM 10.4 °F -3.3 °F 8.6 °F 92% 30.04 in 6.2 mi North 10.4 mph - N/A   Partly Cloudy
9:00 AM 12.2 °F -0.2 °F 8.6 °F 85% 30.04 in 6.2 mi NNW 9.2 mph - N/A   Partly Cloudy
9:30 AM 14.0 °F 5.1 °F 8.6 °F 79% 30.06 in 6.2 mi North 5.8 mph - N/A   Partly Cloudy
10:00 AM 15.8 °F 7.2 °F 10.4 °F 79% 30.06 in 6.2 mi NNW 5.8 mph - N/A   Partly Cloudy
10:30 AM 17.6 °F 6.4 °F 10.4 °F 73% 30.06 in 6.2 mi NNW 9.2 mph - N/A   Partly Cloudy
11:00 AM 21.2 °F 10.9 °F 12.2 °F 68% 30.06 in 6.2 mi NNW 9.2 mph - N/A   Partly Cloudy
11:30 AM 24.8 °F 14.6 °F 12.2 °F 59% 30.04 in 6.2 mi NNW 10.4 mph - N/A   Partly Cloudy
12:00 PM 26.6 °F 17.5 °F 14.0 °F 59% 30.04 in 6.2 mi NNW 9.2 mph - N/A   Scattered Clouds
12:30 PM 26.6 °F 17.5 °F 14.0 °F 59% 30.04 in 6.2 mi North 9.2 mph - N/A Snow Light Snow Showers
1:00 PM 26.6 °F 17.5 °F 15.8 °F 64% 30.04 in 6.2 mi NNW 9.2 mph - N/A Snow Light Snow Showers
1:30 PM 26.6 °F 17.5 °F 17.6 °F 69% 30.04 in 6.2 mi NW 9.2 mph - N/A Snow Light Snow Showers
2:00 PM 28.4 °F 21.2 °F 19.4 °F 69% 30.04 in 6.2 mi NW 6.9 mph - N/A Snow Light Snow Showers
2:30 PM 26.6 °F 16.8 °F 19.4 °F 74% 30.04 in 6.2 mi NNW 10.4 mph - N/A   Partly Cloudy
3:00 PM 26.6 °F 17.5 °F 19.4 °F 74% 30.04 in 6.2 mi North 9.2 mph - N/A   Partly Cloudy
3:16 PM 28.4 °F 18.0 °F 21.2 °F 74% 30.04 in - NNW 12.7 mph - N/A Snow Light Snow Showers
3:30 PM 26.6 °F 15.7 °F 23.0 °F 86% 30.04 in 3.1 mi NNW 12.7 mph - N/A Snow Light Snow Showers
4:00 PM 26.6 °F 16.2 °F 21.2 °F 80% 30.06 in 5.6 mi NW 11.5 mph - N/A Snow Light Snow Showers
4:06 PM 26.6 °F 16.8 °F 23.0 °F 86% 30.06 in - NW 10.4 mph - N/A Snow Light Snow Showers
4:09 PM 26.6 °F 16.8 °F 23.0 °F 86% 30.06 in - NW 10.4 mph - N/A Snow Light Snow Showers
4:11 PM 26.6 °F 17.5 °F 23.0 °F 86% 30.06 in 1.4 mi NW 9.2 mph - N/A Snow Light Snow Showers
4:21 PM 26.6 °F 16.2 °F 24.8 °F 93% 30.06 in 0.9 mi NNW 11.5 mph - N/A Snow Light Snow Showers
4:30 PM 26.6 °F 17.5 °F 24.8 °F 93% 30.06 in 1.5 mi NNW 9.2 mph - N/A Snow Light Snow Showers
4:39 PM 26.6 °F 17.5 °F 24.8 °F 93% 30.06 in - NW 9.2 mph - N/A Snow Light Snow Showers
4:45 PM 26.6 °F 16.8 °F 24.8 °F 93% 30.06 in - NW 10.4 mph - N/A Snow Light Snow Showers
5:00 PM 26.6 °F 15.7 °F 24.8 °F 93% 30.06 in 1.2 mi NW 12.7 mph - N/A Snow Light Snow Showers
5:27 PM 26.6 °F 16.2 °F 24.8 °F 93% 30.06 in 0.9 mi NNW 11.5 mph - N/A Snow Light Snow Showers
5:30 PM 26.6 °F 16.2 °F 24.8 °F 93% 30.06 in 0.9 mi NW 11.5 mph - N/A Snow Light Snow Showers
5:41 PM 26.6 °F 16.8 °F 24.8 °F 93% 30.06 in 1.0 mi NW 10.4 mph - N/A Snow Light Snow Showers
6:00 PM 26.6 °F 18.2 °F 24.8 °F 93% 30.06 in 1.6 mi NNW 8.1 mph - N/A Snow Light Snow Showers
6:06 PM 26.6 °F 19.1 °F 24.8 °F 93% 30.06 in 1.4 mi NNW 6.9 mph - N/A Snow Light Snow Showers
6:14 PM 26.6 °F 20.0 °F 24.8 °F 93% 30.06 in 0.9 mi NNW 5.8 mph - N/A Snow Light Snow Showers
6:23 PM 24.8 °F 17.9 °F 23.0 °F 93% 30.06 in 1.0 mi North 5.8 mph - N/A Snow Light Snow Showers
6:30 PM 26.6 °F 21.2 °F 24.8 °F 93% 30.06 in 1.2 mi NNW 4.6 mph - N/A Snow Light Snow Showers
6:42 PM 26.6 °F 18.2 °F 23.0 °F 86% 30.06 in 1.5 mi NW 8.1 mph - N/A Snow Light Snow Showers
6:48 PM 26.6 °F 17.5 °F 23.0 °F 86% 30.06 in 1.4 mi NW 9.2 mph - N/A Snow Light Snow Showers
7:00 PM 26.6 °F 18.2 °F 24.8 °F 93% 30.06 in 1.2 mi NW 8.1 mph - N/A Snow Light Snow Showers
7:08 PM 26.6 °F 17.5 °F 24.8 °F 93% 30.06 in 1.5 mi NW 9.2 mph - N/A Snow Light Snow Showers
7:15 PM 26.6 °F 16.8 °F 24.8 °F 93% 30.06 in - NW 10.4 mph - N/A Snow Light Snow Showers
7:20 PM 24.8 °F 14.6 °F 23.0 °F 93% 30.06 in 3.1 mi NNW 10.4 mph - N/A Snow Light Snow Showers
7:26 PM 26.6 °F 16.8 °F 23.0 °F 86% 30.06 in - NNW 10.4 mph - N/A Snow Light Snow Showers
7:30 PM 26.6 °F 16.8 °F 23.0 °F 86% 30.06 in 2.2 mi NNW 10.4 mph - N/A Snow Light Snow Showers
7:40 PM 24.8 °F 14.0 °F 23.0 °F 93% 30.06 in - NNW 11.5 mph - N/A Snow Light Snow Showers
7:49 PM 24.8 °F 14.0 °F 23.0 °F 93% 30.06 in - NNW 11.5 mph - N/A Snow Light Snow Showers
8:00 PM 24.8 °F 14.0 °F 23.0 °F 93% 30.06 in 1.9 mi NW 11.5 mph - N/A Snow Light Snow Showers
8:04 PM 24.8 °F 14.0 °F 23.0 °F 93% 30.06 in - NW 11.5 mph - N/A Snow Light Snow Showers
8:08 PM 24.8 °F 14.0 °F 23.0 °F 93% 30.06 in 3.1 mi NW 11.5 mph - N/A Snow Light Snow Showers
8:30 PM 24.8 °F 14.0 °F 23.0 °F 93% 30.06 in - NW 11.5 mph - N/A Snow Light Snow Showers
8:45 PM 24.8 °F 14.6 °F 21.2 °F 86% 30.06 in 3.1 mi NW 10.4 mph - N/A Snow Light Snow Showers
9:00 PM 24.8 °F 15.3 °F 23.0 °F 93% 30.06 in 2.2 mi NW 9.2 mph - N/A Snow Light Snow Showers
9:27 PM 23.0 °F 15.8 °F 21.2 °F 93% 30.06 in 3.1 mi NNW 5.8 mph - N/A Snow Light Snow Showers
9:30 PM 24.8 °F 17.9 °F 23.0 °F 93% 30.06 in 5.0 mi NNW 5.8 mph - N/A Snow Light Snow Showers
10:00 PM 24.8 °F 16.9 °F 23.0 °F 93% 30.06 in - NNW 6.9 mph - N/A Snow Light Snow Showers
10:08 PM 24.8 °F 16.9 °F 23.0 °F 93% 30.06 in - NNW 6.9 mph - N/A Snow Light Snow Showers
10:18 PM 24.8 °F 15.3 °F 23.0 °F 93% 30.06 in - NNW 9.2 mph - N/A Snow Light Snow Showers
10:30 PM 23.0 °F 13.9 °F 21.2 °F 93% 30.06 in - North 8.1 mph - N/A Snow Light Snow Showers
10:47 PM 23.0 °F 18.4 °F 21.2 °F 93% 30.06 in - North 3.5 mph - N/A Snow Light Snow Showers
11:00 PM 23.0 °F 15.8 °F 23.0 °F 100% 30.06 in 1.1 mi NNW 5.8 mph - N/A Snow Light Snow Showers
11:30 PM 19.4 °F 11.5 °F 17.6 °F 93% 30.06 in 6.2 mi NNW 5.8 mph - N/A Snow Light Snow Showers